Location: Göttingen
(51.5413°N, 9.9158°E)
Time: 20:22:43
(UTC+02:00)

Altair - All Passes

Search period start: 26 May 2022 00:00
Search period end: 05 June 2022 00:00
Orbit: 1501 x 1683 km, 47.2° (Epoch: 25 May)

Date Brightness Start Highest point End Pass type
(mag) Time Alt. Az. Time Alt. Az. Time Alt. Az.
26 May - 01:33:25 10° W 01:39:21 18° SW 01:45:13 10° SSW visible
26 May - 16:50:55 10° SSW 16:59:21 33° SE 17:07:57 10° E daylight
26 May - 18:53:08 10° WSW 19:02:56 62° SSE 19:12:53 10° E daylight
26 May - 20:57:17 10° W 21:07:20 69° S 21:17:23 10° ESE daylight
26 May - 23:01:56 10° W 23:11:26 47° SSW 23:20:51 10° SE visible
27 May - 01:07:53 10° W 01:14:19 19° SW 01:20:42 10° S visible
27 May - 16:26:04 10° SSW 16:34:16 31° SE 16:42:39 10° E daylight
27 May - 18:28:01 10° WSW 18:37:45 60° SSE 18:47:40 10° E daylight
27 May - 20:32:06 10° W 20:42:08 70° S 20:52:12 10° ESE daylight
27 May - 22:36:42 10° W 22:46:18 49° SSW 22:55:49 10° SE visible
28 May - 00:42:25 10° W 00:49:18 21° SW 00:56:07 10° S visible
28 May - 16:01:15 10° S 16:09:12 29° SE 16:17:20 10° E daylight
28 May - 18:02:55 10° SW 18:12:35 58° SSE 18:22:27 10° E daylight
28 May - 20:06:54 10° W 20:16:56 70° S 20:27:01 10° ESE daylight
28 May - 22:11:29 10° W 22:21:09 52° SSW 22:30:45 10° SE visible
29 May - 00:17:00 10° W 00:24:15 23° SW 00:31:27 10° S visible
29 May - 15:36:27 10° S 15:44:09 27° SE 15:51:59 10° E daylight
29 May - 17:37:50 10° SW 17:47:25 56° SSE 17:57:14 10° E daylight
29 May - 19:41:43 10° W 19:51:43 71° S 20:01:49 10° E daylight
29 May - 21:46:16 10° W 21:56:00 54° SSW 22:05:41 10° SE daylight
29 May - 23:51:37 10° W 23:59:12 25° SW 00:06:44 10° S visible
30 May - 15:11:43 10° S 15:19:06 25° SE 15:26:37 10° E daylight
30 May - 17:12:45 10° SW 17:22:16 54° SSE 17:32:00 10° E daylight
30 May - 19:16:33 10° W 19:26:31 71° S 19:36:37 10° E daylight
30 May - 21:21:04 10° W 21:30:50 56° SSW 21:40:36 10° SE daylight
30 May - 23:26:15 10° W 23:34:09 27° SW 23:41:58 10° S visible
31 May - 14:47:01 10° S 14:54:03 23° SE 15:01:14 10° E daylight
31 May - 16:47:42 10° SW 16:57:07 52° SSE 17:06:46 10° E daylight
31 May - 18:51:23 10° WSW 19:01:19 70° S 19:11:25 10° E daylight
31 May - 20:55:51 10° W 21:05:40 58° SSW 21:15:29 10° SE daylight
31 May - 23:00:56 10° W 23:09:05 29° SW 23:17:10 10° S visible
01 Jun - 14:22:22 10° S 14:29:01 21° SE 14:35:48 10° E daylight
01 Jun - 16:22:40 10° SW 16:31:58 50° SSE 16:41:32 10° E daylight
01 Jun - 18:26:13 10° WSW 18:36:07 70° S 18:46:13 10° E daylight
01 Jun - 20:30:39 10° W 20:40:29 59° SSW 20:50:22 10° SE daylight
01 Jun - 22:35:38 10° W 22:43:59 31° SW 22:52:21 10° SSE visible
02 Jun - 13:57:47 10° S 14:04:00 19° SE 14:10:20 10° E daylight
02 Jun - 15:57:39 10° SW 16:06:50 47° SSE 16:16:19 10° E daylight
02 Jun - 18:01:03 10° WSW 18:10:55 69° S 18:21:00 10° E daylight
02 Jun - 20:05:28 10° W 20:15:19 61° SSW 20:25:14 10° ESE daylight
02 Jun - 22:10:21 10° W 22:18:55 33° SW 22:27:28 10° SSE visible
03 Jun - 13:33:17 10° SSE 13:38:59 17° SE 13:44:47 10° E daylight
03 Jun - 15:32:39 10° SW 15:41:43 45° SSE 15:51:04 10° E daylight
03 Jun - 17:35:54 10° WSW 17:45:43 69° S 17:55:47 10° E daylight
03 Jun - 19:40:16 10° W 19:50:08 63° SSW 20:00:05 10° ESE daylight
03 Jun - 21:45:04 10° W 21:53:49 35° SW 22:02:34 10° SSE daylight
03 Jun - 23:55:16 10° WSW 23:56:07 10° WSW 23:56:57 10° SW visible
04 Jun - 13:08:52 10° SSE 13:13:59 16° SE 13:19:11 10° E daylight
04 Jun - 15:07:40 10° SSW 15:16:36 43° SSE 15:25:49 10° E daylight
04 Jun - 17:10:45 10° WSW 17:20:31 68° S 17:30:34 10° E daylight
04 Jun - 19:15:05 10° W 19:24:56 64° SSW 19:34:56 10° ESE daylight
04 Jun - 21:19:49 10° W 21:28:43 37° SW 21:37:38 10° SSE daylight
04 Jun - 23:28:06 10° WSW 23:31:08 12° WSW 23:34:09 10° SW visible
